Weather History for Cherokee, IA

Change the Weather History Date:

Monday, September 23, 2013

  Actual Average Record
Temperature  
Mean Temperature 68 °F -  
Max Temperature 81 °F 67 °F 84 °F (1976)
Min Temperature 54 °F 39 °F 26 °F (1974)
Cooling Degree Days 2    
Growing Degree Days 18 (Base 50)    
Moisture  
Dew Point 47 °F    
Average Humidity 54    
Maximum Humidity 83    
Minimum Humidity 23    
Precipitation  
Precipitation 0.00 in - - ()
Sea Level Pressure  
Sea Level Pressure 29.83 in    
Wind  
Wind Speed 11 mph (SSE)    
Max Wind Speed 24 mph    
Max Gust Speed 30 mph    
Visibility 10 miles    
Events      
Averages and records for this station are not official NWS values.
T = Trace of Precipitation, MM = Missing Value Source: NWS Daily Summary

Daily Weather History Graph

Daily Weather History Graph

Search for Another Location

Airport:

Trip Planner

Search our weather history database for the weather conditions in past years. The results will help you decide how hot, cold, wet, or windy it might be!

Date:

Astronomy

Sep. 23, 2013 Rise Set
Actual Time 7:10 AM CDT 7:17 PM CDT
Civil Twilight 6:42 AM CDT 7:45 PM CDT
Nautical Twilight 6:09 AM CDT 8:18 PM CDT
Astronomical Twilight 5:35 AM CDT 8:51 PM CDT
Moon 9:43 PM CDT (9/23) 11:37 AM CDT (9/23)
Length of Visible Light 13h 02m
Length of Day
12h 06m
Waning Gibbous, 81% of the Moon is Illuminated
Sep 23
Waning Gibbous
Sep 26
Last Quarter
Oct 4
New
Oct 11
First Quarter
Oct 18
Full

Hourly Weather History & Observations

Time (CDT) Temp. Dew Point Humidity Pressure Visibility Wind Dir Wind Speed Gust Speed Precip Events Conditions
12:15 AM 62.6 °F 52.2 °F 69% 29.86 in 10.0 mi South 8.1 mph - N/A   Clear
12:35 AM 62.1 °F 52.2 °F 70% 29.86 in 10.0 mi South 5.8 mph - N/A   Clear
12:55 AM 61.5 °F 52.3 °F 72% 29.86 in 10.0 mi SSE 8.1 mph - N/A   Clear
1:15 AM 61.0 °F 52.7 °F 74% 29.86 in 10.0 mi SSE 9.2 mph - N/A   Clear
1:35 AM 60.6 °F 52.5 °F 75% 29.86 in 10.0 mi SSE 8.1 mph - N/A   Clear
1:55 AM 60.8 °F 52.0 °F 73% 29.86 in 10.0 mi SSE 10.4 mph - N/A   Clear
2:15 AM 60.8 °F 51.8 °F 72% 29.85 in 10.0 mi SSE 9.2 mph - N/A   Clear
2:35 AM 59.9 °F 51.8 °F 75% 29.85 in 10.0 mi SSE 10.4 mph - N/A   Clear
2:55 AM 59.9 °F 51.1 °F 73% 29.85 in 10.0 mi SSE 9.2 mph - N/A   Clear
3:15 AM 59.9 °F 50.7 °F 72% 29.84 in 10.0 mi SSE 10.4 mph - N/A   Clear
3:35 AM 59.0 °F 50.4 °F 73% 29.84 in 10.0 mi South 8.1 mph - N/A   Clear
3:55 AM 57.4 °F 50.2 °F 77% 29.84 in 10.0 mi South 6.9 mph - N/A   Clear
4:15 AM 56.5 °F 49.8 °F 78% 29.84 in 10.0 mi South 4.6 mph - N/A   Clear
4:35 AM 56.3 °F 50.0 °F 79% 29.84 in 10.0 mi SSE 8.1 mph - N/A   Clear
4:55 AM 56.3 °F 49.6 °F 78% 29.84 in 10.0 mi SSE 8.1 mph - N/A   Clear
5:15 AM 55.6 °F 49.5 °F 80% 29.84 in 10.0 mi SSE 6.9 mph - N/A   Clear
5:35 AM 55.4 °F 49.5 °F 80% 29.83 in 10.0 mi SSE 6.9 mph - N/A   Clear
5:55 AM 54.9 °F 49.5 °F 82% 29.83 in 10.0 mi SSE 9.2 mph - N/A   Clear
6:15 AM 55.4 °F 49.5 °F 80% 29.84 in 10.0 mi South 8.1 mph - N/A   Clear
6:35 AM 54.9 °F 49.6 °F 83% 29.84 in 10.0 mi SSE 8.1 mph - N/A   Clear
6:55 AM 55.4 °F 49.5 °F 80% 29.85 in 10.0 mi SSE 8.1 mph - N/A   Clear
7:15 AM 55.0 °F 49.5 °F 81% 29.85 in 10.0 mi South 6.9 mph - N/A   Clear
7:35 AM 56.3 °F 50.2 °F 80% 29.86 in 10.0 mi South 6.9 mph - N/A   Clear
7:55 AM 56.8 °F 50.4 °F 79% 29.86 in 10.0 mi SSE 5.8 mph - N/A   Clear
8:15 AM 57.7 °F 50.7 °F 77% 29.86 in 10.0 mi South 8.1 mph - N/A   Clear
8:35 AM 59.2 °F 50.9 °F 74% 29.86 in 10.0 mi SSE 10.4 mph - N/A   Clear
8:55 AM 60.3 °F 50.9 °F 71% 29.87 in 10.0 mi SSE 10.4 mph - N/A   Clear
9:15 AM 61.7 °F 51.1 °F 68% 29.87 in 10.0 mi South 11.5 mph - N/A   Clear
9:35 AM 63.5 °F 51.3 °F 64% 29.86 in 10.0 mi South 11.5 mph 17.3 mph N/A   Clear
9:55 AM 64.8 °F 51.4 °F 62% 29.86 in 10.0 mi South 13.8 mph - N/A   Clear
10:15 AM 66.7 °F 51.6 °F 58% 29.86 in 10.0 mi SSE 16.1 mph 25.3 mph N/A   Clear
10:35 AM 69.1 °F 50.2 °F 51% 29.85 in 10.0 mi SSE 16.1 mph 20.7 mph N/A   Clear
10:55 AM 70.7 °F 48.9 °F 46% 29.85 in 10.0 mi SSE 19.6 mph 25.3 mph N/A   Clear
11:15 AM 73.0 °F 47.7 °F 40% 29.85 in 10.0 mi SSE 24.2 mph 29.9 mph N/A   Clear
11:35 AM 74.7 °F 46.0 °F 36% 29.84 in 10.0 mi SSE 20.7 mph 27.6 mph N/A   Clear
11:55 AM 74.8 °F 46.4 °F 36% 29.84 in 10.0 mi South 20.7 mph 29.9 mph N/A   Clear
12:15 PM 76.1 °F 45.1 °F 33% 29.84 in 10.0 mi South 17.3 mph 29.9 mph N/A   Clear
12:35 PM 77.2 °F 44.4 °F 31% 29.83 in 10.0 mi South 19.6 mph 27.6 mph N/A   Clear
1:15 PM 78.6 °F 43.5 °F 29% 29.82 in 10.0 mi SSE 20.7 mph 26.5 mph N/A   Clear
1:35 PM 78.6 °F 44.4 °F 30% 29.81 in 10.0 mi SSE 16.1 mph 23.0 mph N/A   Clear
1:55 PM 79.2 °F 42.8 °F 27% 29.80 in 10.0 mi SSE 19.6 mph 26.5 mph N/A   Clear
2:15 PM 79.9 °F 40.6 °F 25% 29.79 in 10.0 mi SSE 21.9 mph 28.8 mph N/A   Clear
2:35 PM 80.1 °F 41.4 °F 25% 29.78 in 10.0 mi SSE 17.3 mph 24.2 mph N/A   Clear
2:55 PM 80.6 °F 41.4 °F 25% 29.78 in 10.0 mi SSE 19.6 mph 26.5 mph N/A   Clear
3:15 PM 81.0 °F 41.9 °F 25% 29.77 in 10.0 mi SSE 23.0 mph 28.8 mph N/A   Clear
3:35 PM 81.1 °F 40.3 °F 23% 29.77 in 10.0 mi SSE 18.4 mph 27.6 mph N/A   Clear
3:55 PM 81.1 °F 40.6 °F 24% 29.77 in 10.0 mi SSE 16.1 mph 28.8 mph N/A   Clear
4:15 PM 81.0 °F 41.4 °F 24% 29.77 in 10.0 mi SSE 18.4 mph 27.6 mph N/A   Clear
4:35 PM 80.8 °F 40.5 °F 24% 29.77 in 10.0 mi South 17.3 mph 27.6 mph N/A   Clear
4:55 PM 80.6 °F 42.3 °F 26% 29.77 in 10.0 mi SSE 18.4 mph 24.2 mph N/A   Clear
5:15 PM 79.9 °F 43.7 °F 28% 29.77 in 10.0 mi SSE 16.1 mph 23.0 mph N/A   Clear
5:35 PM 79.2 °F 42.1 °F 27% 29.78 in 10.0 mi SSE 16.1 mph 24.2 mph N/A   Clear
5:55 PM 78.6 °F 42.6 °F 28% 29.79 in 10.0 mi SSE 13.8 mph 20.7 mph N/A   Clear
6:15 PM 77.4 °F 43.5 °F 30% 29.80 in 10.0 mi SSE 15.0 mph 21.9 mph N/A   Clear
6:35 PM 76.1 °F 44.4 °F 32% 29.80 in 10.0 mi SSE 13.8 mph 20.7 mph N/A   Clear
6:55 PM 73.6 °F 45.1 °F 36% 29.80 in 10.0 mi SE 9.2 mph - N/A   Clear
7:15 PM 71.6 °F 44.2 °F 37% 29.81 in 10.0 mi SE 8.1 mph - N/A   Clear
7:35 PM 69.3 °F 44.6 °F 41% 29.81 in 10.0 mi SE 8.1 mph - N/A   Clear
7:55 PM 67.1 °F 45.7 °F 46% 29.82 in 10.0 mi SE 5.8 mph - N/A   Clear
8:15 PM 66.2 °F 45.9 °F 48% 29.82 in 10.0 mi ESE 8.1 mph - N/A   Clear
8:35 PM 65.5 °F 46.2 °F 50% 29.83 in 10.0 mi ESE 5.8 mph - N/A   Clear
8:55 PM 64.4 °F 46.8 °F 53% 29.82 in 10.0 mi ESE 5.8 mph - N/A   Clear
9:15 PM 64.0 °F 47.3 °F 54% 29.83 in 10.0 mi ESE 8.1 mph - N/A   Clear
9:35 PM 64.4 °F 47.5 °F 54% 29.83 in 10.0 mi SE 6.9 mph - N/A   Clear
9:55 PM 63.1 °F 48.0 °F 58% 29.84 in 10.0 mi ESE 5.8 mph - N/A   Clear
10:15 PM 63.9 °F 48.0 °F 56% 29.84 in 10.0 mi SE 8.1 mph - N/A   Clear
10:35 PM 64.0 °F 48.2 °F 56% 29.84 in 10.0 mi SE 8.1 mph - N/A   Clear
10:55 PM 63.9 °F 47.7 °F 56% 29.84 in 10.0 mi SE 6.9 mph - N/A   Clear
11:15 PM 63.7 °F 47.5 °F 56% 29.84 in 10.0 mi ESE 8.1 mph - N/A   Clear
11:35 PM 63.1 °F 47.8 °F 57% 29.84 in 10.0 mi ESE 6.9 mph - N/A   Clear
11:55 PM 62.6 °F 47.8 °F 58% 29.84 in 10.0 mi SE 6.9 mph - N/A   Clear